Address 0xd0529b53bae79ebf00e429dc74c897fc372f61de

 
Ad
Ad
Txn Hash
Block
From
To
Value [Txn Fee]
0x6892cfb9765d3f0cd506e8a873c4ef7060f3abaa258512438a576b5b2fae195453415272021-03-02 22:24:319 hrs 57 mins ago0xd0529b53bae79ebf00e429dc74c897fc372f61deOUT PancakeSwap: Main Staking Contract0 BNB0.00107628
0xa72de602ed829882c2ced86a517f0023e95bf3a4deaf4b78ec219789030b208653415152021-03-02 22:23:559 hrs 57 mins ago0xd0529b53bae79ebf00e429dc74c897fc372f61deOUT PancakeSwap: Lottery0 BNB0.00509333
0xf627eee28d26a10378ab67519234db8fc3f80bdfe81c795831ea882254f4ac3e53414912021-03-02 22:22:439 hrs 58 mins ago0xd0529b53bae79ebf00e429dc74c897fc372f61deOUT PancakeSwap: Main Staking Contract0 BNB0.00128259
0x3997c6236bdcb4d2638999b1898b02eeeb6240d19281ed188c57b5de0f546f7853414652021-03-02 22:21:2510 hrs ago0xd0529b53bae79ebf00e429dc74c897fc372f61deOUT PancakeSwap: Router2 BNB0.00176295
0x8889aa3238a632288450d2394dac455fa080c8d0acd37ecaaa5f6912553e22e853414412021-03-02 22:20:1310 hrs 1 min ago0xd0529b53bae79ebf00e429dc74c897fc372f61deOUT PancakeSwap: Main Staking Contract0 BNB0.00099517
0xc8e2b50633bbf0b3f80a1572214a2563fc82abe11ff66eceb659225739307e7f53414232021-03-02 22:19:1910 hrs 2 mins ago0xd0529b53bae79ebf00e429dc74c897fc372f61deOUT PancakeSwap: Main Staking Contract0 BNB0.00121382
0xecffc239edae6c294772d1c915f224da8151bffe3f57eadf645f81860186676f53414052021-03-02 22:18:2510 hrs 3 mins ago0xd0529b53bae79ebf00e429dc74c897fc372f61deOUT PancakeSwap: Router0 BNB0.00102234
0xf1cfaab25ed161876e041a7b9a462d5abc22b98c149c6e13aad58ba4e4af30bd53413762021-03-02 22:16:5810 hrs 4 mins ago0xd0529b53bae79ebf00e429dc74c897fc372f61deOUT 0xe70e9185f5ea7ba3c5d63705784d8563017f2e570 BNB0.00133719
0xbe348d09535e5e239486c492e4e6298d3424d019bacbd07ec719e24a9012147c53413672021-03-02 22:16:3110 hrs 5 mins ago0xd0529b53bae79ebf00e429dc74c897fc372f61deOUT 0xe70e9185f5ea7ba3c5d63705784d8563017f2e570 BNB0.00133719
0x9fed80aa89f0914741c5142749d37a8d63614bddb1c377ca430562a7341d61d353413582021-03-02 22:16:0410 hrs 5 mins ago0xd0529b53bae79ebf00e429dc74c897fc372f61deOUT PancakeSwap: Router0 BNB0.00152371
0x3f5b45c6292132723a87aa012d15bce05393ca33ab81ad517cdb7ee24fffb4d353413402021-03-02 22:15:1010 hrs 6 mins ago0xd0529b53bae79ebf00e429dc74c897fc372f61deOUT 0x0895196562c7868c5be92459fae7f877ed4504520 BNB0.00311743
0x46a70f229a50fcae77b20d414ad987ae071d666634d917be384a01d6266f9ab953242112021-03-02 7:58:221 day 23 mins ago0xd0529b53bae79ebf00e429dc74c897fc372f61deOUT PancakeSwap: Main Staking Contract0 BNB0.00157716
0xf07a8c5597698733556871163338d51202ca75c785b72d0925dccab61a74a8a953242002021-03-02 7:57:491 day 23 mins ago0xd0529b53bae79ebf00e429dc74c897fc372f61deOUT 0xe70e9185f5ea7ba3c5d63705784d8563017f2e570 BNB0.00133719
0x04ad44acc7dd59e2a5b89091263924bed016a68e40f8fd2b3391d71bad7ee98853241402021-03-02 7:54:491 day 26 mins ago0xd0529b53bae79ebf00e429dc74c897fc372f61deOUT 0xe70e9185f5ea7ba3c5d63705784d8563017f2e570 BNB0.00125427
0xbe6bc727b5698dd82fa599ffd0d5b8aeb2240547c249123df8b728d3aaabb9a053241292021-03-02 7:54:161 day 27 mins ago0xd0529b53bae79ebf00e429dc74c897fc372f61deOUT 0xe70e9185f5ea7ba3c5d63705784d8563017f2e570 BNB0.00125427
0x93ea367e28856be8af2ef401ff2ab1bbf19094f0dec1b0dca2a24629fe6c443253241182021-03-02 7:53:431 day 27 mins ago0xd0529b53bae79ebf00e429dc74c897fc372f61deOUT 0xe70e9185f5ea7ba3c5d63705784d8563017f2e570 BNB0.00125427
0x4e61b882203ba6e951e4e7c907ad7abe0a7f871eb88e86f367de11ee434bf6e352968772021-03-01 9:07:001 day 23 hrs ago0xd0529b53bae79ebf00e429dc74c897fc372f61deOUT PancakeSwap: Router0 BNB0.00169347
0x931d9b2953d7447a0bd8d6a132ba31ea415d2870a38f9fdd5bd61b6107328bdf52968132021-03-01 9:03:481 day 23 hrs ago0xd0529b53bae79ebf00e429dc74c897fc372f61deOUT 0xe70e9185f5ea7ba3c5d63705784d8563017f2e570 BNB0.00133719
0x96da1d79379f271b64400cc92ccd75cf5c0ca3fb665136e67d69b6af9b606e4152967992021-03-01 9:03:061 day 23 hrs ago0xd0529b53bae79ebf00e429dc74c897fc372f61deOUT PancakeSwap: Router0 BNB0.00163329
0xd739a909acf03cd0585a54eb2c6c4824de25e5520de5ed2765f01af4c0798bc052967792021-03-01 9:02:061 day 23 hrs ago0xd0529b53bae79ebf00e429dc74c897fc372f61deOUT 0x0895196562c7868c5be92459fae7f877ed4504520 BNB0.00311743
0x7b2dc8255b8781ab986bec8da635cec7df72595c03613a584de17a2659f05a3352941862021-03-01 6:52:262 days 1 hr ago0xd0529b53bae79ebf00e429dc74c897fc372f61deOUT 0xe70e9185f5ea7ba3c5d63705784d8563017f2e570 BNB0.00133719
0x430ab37247a968882b6662d788193b19a96a98831a267d2b0034c3d8e2f8f35252939282021-03-01 6:39:322 days 1 hr ago0xd0529b53bae79ebf00e429dc74c897fc372f61deOUT PancakeSwap: Main Staking Contract0 BNB0.00172716
0xadb751fea8a29d1f76b635f1c62ee9de2e96d2383c892afc0296c5a604ff63d252685972021-02-28 9:26:362 days 22 hrs ago0xd0529b53bae79ebf00e429dc74c897fc372f61deOUT 0x0895196562c7868c5be92459fae7f877ed4504520 BNB0.00123172
0x20ecf280c516da130f9b59efe0ff7fc326603fc1e0f9025338479cf1a04fbc3252685852021-02-28 9:26:002 days 22 hrs ago0xd0529b53bae79ebf00e429dc74c897fc372f61deOUT 0x0895196562c7868c5be92459fae7f877ed4504520 BNB0.00323746
0x4902934e87a38037ab72151c62f7c8700bbb00579c1500518e30ced33e1c81bf52685612021-02-28 9:24:482 days 22 hrs ago0xd0529b53bae79ebf00e429dc74c897fc372f61deOUT PancakeSwap: Lottery0 BNB0.01692227
[ Download CSV Export 
Latest 2 internal transactions
Parent Txn Hash Block From To Value
0xecffc239edae6c294772d1c915f224da8151bffe3f57eadf645f81860186676f53414052021-03-02 22:18:2510 hrs 3 mins ago PancakeSwap: Router0xd0529b53bae79ebf00e429dc74c897fc372f61de1.944362997117336877 BNB
0xd2b78a15d078e96fec9449b92c10453ff8a979078a81d890b62ad8dcada4e55551111682021-02-22 21:39:158 days 10 hrs ago PancakeSwap: Router0xd0529b53bae79ebf00e429dc74c897fc372f61de7.670500404418973743 BNB
[ Download CSV Export 
Loading

Contract Name:
0 BNB

Compiler Version
0

Optimization Enabled:
0 BNB

Other Settings:
-NA-
Block Transaction Gas Used Reward
Age Block Fee Address BC Fee Address Voting Power Jailed Incoming
Block Uncle Number Difficulty Gas Used Reward
Loading
Loading
Make sure to use the "Vote Down" button for any spammy posts, and the "Vote Up" for interesting conversations.